Regional Weather Roundup
Issued by NWS Green Bay, WI

Home | Current Version | Previous Version | Graphics & Text | Print | Product List | Glossary Off
Versions: 1 2 3 4 5 6 7 8 9 10 11 12 13 14 15 16 17 18 19 20 21 22 23 24 25 26 27 28 29 30 31 32 33 34 35 36 37 38 39 40 41 42 43 44 45 46 47 48 49 50

000
ASUS43 KGRB 210559
RWRGRB

NORTH-CENTRAL AND NORTHEAST WISCONSIN REGIONAL WEATHER ROUNDUP
NATIONAL WEATHER SERVICE GREEN BAY WI
100 AM CDT SUN SEP 21 2014

WIZ005-009-010>012-018-019-210700-
NORTH CENTRAL WISCONSIN

CITY           SKY/WX    TMP DP  RH WIND       PRES   REMARKS
IRONWOOD       CLOUDY    54  54 100 W5        29.67R
MANITOWISH WTR NOT AVBL
ARBOR VITAE    NOT AVBL
EAGLE RIVER    NOT AVBL
LAND O LAKES   NOT AVBL
RHINELANDER    CLOUDY    52  51  97 W6        29.69S
PHILLIPS       LGT RAIN  52  52  99 W3        29.68F
ANTIGO         NOT AVBL
TOMAHAWK       NOT AVBL
MERRILL        NOT AVBL
$$

WIZ013-073-210700-
NORTHEAST WISCONSIN

CITY           SKY/WX    TMP DP  RH WIND       PRES   REMARKS
IRON MOUNTAIN  RAIN      56  53  90 NE6       29.66F FOG
MARINETTE      CLOUDY    55  54  94 E8        29.66R
$$

WIZ017-030-035>037-045-210700-
CENTRAL WISCONSIN

CITY           SKY/WX    TMP DP  RH WIND       PRES   REMARKS
MEDFORD        NOT AVBL
WAUSAU         CLOUDY    55  53  93 W9        29.69S
MOSINEE        CLOUDY    54  54 100 W8        29.71F
MARSHFIELD     MOCLDY    56  52  86 W15       29.72F
WISC RAPIDS    MOCLDY    56  53  90 W13       29.74F
STEVENS POINT  NOT AVBL
WAUPACA        NOT AVBL
SHAWANO        CLOUDY    58  55  89 W3        29.69R
CLINTONVILLE   PTCLDY    55  54  94 W3        29.68S
$$

WIZ038-039-048-051-210700-
FOX VALLEY

CITY           SKY/WX    TMP DP  RH WIND       PRES   REMARKS
NWS GREEN BAY  CLOUDY    57  55  93 W7        29.67F
APPLETON       NOT AVBL
OSHKOSH        PTCLDY    58  56  93 W5        29.69S
FOND DU LAC    PTCLDY    58  55  90 W7        29.70S
$$

WIZ022-050-052-210700-
EAST CENTRAL WISCONSIN

CITY           SKY/WX    TMP DP  RH WIND       PRES   REMARKS
STURGEON BAY   CLOUDY    57  54  88 N6        29.66R
MANITOWOC      NOT AVBL
SHEBOYGAN      CLOUDY    58  55  90 MISG      29.66F
$$

LMZ563-521-522-541>543-210700-
LAKESHORE

STATION/POSITION TIME  TEMP    WIND        PRES    VSBY  WAVE
                       AIR SEA DIR/SP/G                  HT/PER
                 (UTC) (F)     (DEG/KT/KT) (MB)    (MI)  (FT/S)
SHEBOYGAN LKSHOR 0500   64 54  300/ 28/ 36 1005.4R
KEWAUNEE LKSHORE 0500   58     280/ 15/ 24 1003.5R
NORTHPORT PIER   0500   56      40/  4/  4 1004.4F
N MID LAKE BUOY  0500   58 58   30/ 10/ 12 1004.6R         3/ 6
SISTER BAY LKSHO 0500             CALM       N/A
CHAMBERS ISLAND  0500   58      40/ 11/ 15 1005.1S
MENOMINEE LKSHOR 0500   58      30/ 15/ 18 1004.7F
$$


USA.gov is the U.S. government's official web portal to all federal, state and local government web resources and services.